Location: Cosy Dell
(34.2789°N, 117.4537°W)
Time: 00:45:04
(UTC+00:00)

Cosmos 1727 Rocket - Pass Details

Date: 14 July 2020
Orbit: 962 x 996 km, 82.9° (Epoch: 12 August)

Event Time Altitude Azimuth Distance (km) Brightness Sun altitude
Rises 06:38:51 0° 358° (N) 3,684 8.0 -31.2°
Reaches altitude 10° 06:41:25 10° 2° (N) 2,738 7.1 -31.4°
Enters shadow 06:46:50 56° 49° (NE) 1,157 4.3 -31.8°
